• In Hungary
  • List of Countries
  • For 7 days
  • Water Temperature
  • Satellite Maps
  • Weather Map
  • News
  • Weather Widgets
  • user-avatar
    Login

    Hourly Weather Bihać

    Today, 18 October, Thursday

    Time Temperature Precipitation Wind Pressure Humidity
    00:00 +13°C° 0 mm 2 mps 711 mmHg 83%
    01:00 +13°C° 0 mm 1 mps 711 mmHg 82%
    02:00 +13°C° 0 mm 1 mps 711 mmHg 82%
    03:00 +12°C° 0 mm 1 mps 711 mmHg 81%
    04:00 +12°C° 0 mm 1 mps 711 mmHg 81%
    05:00 +13°C° 0 mm 1 mps 711 mmHg 80%
    06:00 +13°C° 0 mm 1 mps 711 mmHg 79%
    07:00 +13°C° 0 mm 2 mps 711 mmHg 78%
    08:00 +15°C° 0 mm 2 mps 711 mmHg 72%
    09:00 +18°C° 0 mm 1 mps 711 mmHg 65%
    10:00 +19°C° 0 mm 1 mps 711 mmHg 59%
    11:00 +20°C° 0 mm 1 mps 711 mmHg 57%
    12:00 +21°C° 0 mm 1 mps 711 mmHg 55%
    13:00 +22°C° 0 mm 1 mps 711 mmHg 53%
    14:00 +21°C° 0 mm 1 mps 711 mmHg 57%
    15:00 +20°C° 0 mm 1 mps 711 mmHg 62%
    16:00 +19°C° 0 mm 1 mps 710 mmHg 66%
    17:00 +18°C° 0 mm 1 mps 710 mmHg 72%
    18:00 +15°C° 0 mm 1 mps 710 mmHg 78%
    19:00 +14°C° 0 mm 1 mps 710 mmHg 83%
    20:00 +13°C° 0 mm 1 mps 710 mmHg 83%
    21:00 +13°C° 0 mm 2 mps 711 mmHg 83%
    22:00 +12°C° 0 mm 2 mps 711 mmHg 84%
    23:00 +12°C° 0 mm 2 mps 711 mmHg 83%

    Tomorrow, 19 October, Friday

    Time Temperature Precipitation Wind Pressure Humidity
    00:00 +12°C° 0 mm 2 mps 711 mmHg 82%
    01:00 +12°C° 0 mm 2 mps 711 mmHg 82%
    02:00 +12°C° 0 mm 2 mps 711 mmHg 82%
    03:00 +10°C° 0 mm 2 mps 711 mmHg 82%
    04:00 +10°C° 0 mm 2 mps 711 mmHg 81%
    05:00 +10°C° 0 mm 2 mps 711 mmHg 81%
    06:00 +10°C° 0 mm 2 mps 711 mmHg 81%
    07:00 +10°C° 0 mm 2 mps 712 mmHg 81%
    08:00 +13°C° 0 mm 2 mps 712 mmHg 73%
    09:00 +15°C° 0 mm 2 mps 712 mmHg 66%
    10:00 +17°C° 0 mm 2 mps 713 mmHg 58%
    11:00 +18°C° 0 mm 2 mps 713 mmHg 55%
    12:00 +20°C° 0 mm 1 mps 713 mmHg 52%
    13:00 +21°C° 0 mm 1 mps 713 mmHg 49%
    14:00 +19°C° 0 mm 2 mps 713 mmHg 53%
    15:00 +19°C° 0 mm 2 mps 713 mmHg 56%
    16:00 +18°C° 0 mm 2 mps 713 mmHg 60%
    17:00 +16°C° 0 mm 2 mps 713 mmHg 66%
    18:00 +14°C° 0 mm 2 mps 713 mmHg 73%
    19:00 +13°C° 0 mm 2 mps 713 mmHg 79%
    20:00 +11°C° 0 mm 3 mps 713 mmHg 80%
    21:00 +11°C° 0 mm 3 mps 714 mmHg 80%
    22:00 +10°C° 0 mm 3 mps 714 mmHg 81%
    23:00 +10°C° 0 mm 3 mps 714 mmHg 82%

    Day after tomorrow, 20 October, Saturday

    Time Temperature Precipitation Wind Pressure Humidity
    00:00 +10°C° 0 mm 3 mps 714 mmHg 82%
    01:00 +10°C° 0 mm 3 mps 714 mmHg 83%
    02:00 +9°C° 0 mm 3 mps 714 mmHg 84%
    03:00 +9°C° 0 mm 3 mps 714 mmHg 84%
    04:00 +9°C° 0 mm 3 mps 714 mmHg 85%
    05:00 +9°C° 0 mm 3 mps 714 mmHg 85%
    06:00 +9°C° 0 mm 3 mps 714 mmHg 85%
    07:00 +9°C° 0 mm 3 mps 715 mmHg 86%
    08:00 +11°C° 0 mm 3 mps 715 mmHg 78%
    09:00 +13°C° 0 mm 3 mps 716 mmHg 70%
    10:00 +16°C° 0 mm 3 mps 716 mmHg 63%
    11:00 +17°C° 0 mm 3 mps 716 mmHg 60%
    12:00 +17°C° 0 mm 3 mps 716 mmHg 56%
    13:00 +18°C° 0 mm 3 mps 716 mmHg 53%
    14:00 +18°C° 0 mm 3 mps 716 mmHg 56%
    15:00 +17°C° 0 mm 3 mps 716 mmHg 59%
    16:00 +17°C° 0 mm 3 mps 715 mmHg 63%
    17:00 +14°C° 0 mm 3 mps 716 mmHg 69%
    18:00 +12°C° 0 mm 3 mps 716 mmHg 76%
    19:00 +11°C° 0 mm 3 mps 716 mmHg 83%
    20:00 +10°C° 0 mm 3 mps 716 mmHg 84%
    21:00 +10°C° 0 mm 3 mps 716 mmHg 85%
    22:00 +10°C° 0 mm 4 mps 716 mmHg 86%
    23:00 +8°C° 0 mm 4 mps 716 mmHg 87%

    21 October, Sunday

    Time Temperature Precipitation Wind Pressure Humidity
    00:00 +8°C° 0 mm 4 mps 716 mmHg 87%
    01:00 +8°C° 0 mm 4 mps 716 mmHg 88%
    02:00 +8°C° 0 mm 4 mps 716 mmHg 87%
    03:00 +8°C° 0 mm 4 mps 716 mmHg 87%
    04:00 +7°C° 0 mm 4 mps 716 mmHg 86%
    05:00 +7°C° 0 mm 4 mps 716 mmHg 86%
    06:00 +7°C° 0 mm 4 mps 716 mmHg 86%
    07:00 +6°C° 0 mm 4 mps 716 mmHg 86%
    08:00 +8°C° 0 mm 4 mps 716 mmHg 77%
    09:00 +10°C° 0 mm 4 mps 717 mmHg 69%
    10:00 +12°C° 0 mm 4 mps 717 mmHg 60%
    11:00 +13°C° 0 mm 4 mps 716 mmHg 56%
    12:00 +13°C° 0 mm 4 mps 716 mmHg 52%
    13:00 +14°C° 0 mm 4 mps 716 mmHg 48%
    14:00 +14°C° 0 mm 4 mps 716 mmHg 49%
    15:00 +13°C° 0 mm 3 mps 715 mmHg 51%
    16:00 +12°C° 0 mm 3 mps 715 mmHg 52%
    17:00 +11°C° 0 mm 3 mps 715 mmHg 57%
    18:00 +9°C° 0 mm 3 mps 715 mmHg 62%
    19:00 +7°C° 0 mm 3 mps 715 mmHg 67%
    20:00 +7°C° 0 mm 3 mps 715 mmHg 66%
    21:00 +7°C° 0 mm 3 mps 715 mmHg 65%
    22:00 +5°C° 0 mm 3 mps 715 mmHg 65%
    23:00 +5°C° 0 mm 3 mps 715 mmHg 66%

    22 October, Monday

    Time Temperature Precipitation Wind Pressure Humidity
    00:00 +5°C° 0 mm 3 mps 715 mmHg 67%
    01:00 +5°C° 0 mm 3 mps 714 mmHg 68%
    02:00 +4°C° 0 mm 3 mps 714 mmHg 70%
    03:00 +4°C° 0 mm 3 mps 714 mmHg 73%
    04:00 +4°C° 0 mm 3 mps 714 mmHg 76%
    05:00 +4°C° 0 mm 3 mps 714 mmHg 77%
    06:00 +4°C° 0 mm 3 mps 714 mmHg 78%
    07:00 +3°C° 0 mm 3 mps 714 mmHg 79%
    08:00 +5°C° 0 mm 3 mps 714 mmHg 72%
    09:00 +7°C° 0 mm 4 mps 715 mmHg 64%
    10:00 +10°C° 0 mm 4 mps 715 mmHg 56%
    11:00 +10°C° 0 mm 4 mps 715 mmHg 55%
    12:00 +10°C° 0 mm 5 mps 715 mmHg 53%
    13:00 +10°C° 0 mm 5 mps 715 mmHg 52%
    14:00 +10°C° 0 mm 5 mps 715 mmHg 54%
    15:00 +9°C° 0 mm 5 mps 714 mmHg 56%
    16:00 +10°C° 0 mm 4 mps 714 mmHg 58%
    17:00 +7°C° 0 mm 4 mps 714 mmHg 65%
    18:00 +7°C° 0 mm 3 mps 715 mmHg 72%
    19:00 +4°C° 0 mm 3 mps 715 mmHg 79%
    20:00 +5°C° 0 mm 2 mps 715 mmHg 80%
    21:00 +4°C° 0 mm 2 mps 715 mmHg 81%
    22:00 +4°C° 0 mm 2 mps 715 mmHg 81%
    23:00 +4°C° 0 mm 2 mps 714 mmHg 82%

    23 October, Tuesday

    Time Temperature Precipitation Wind Pressure Humidity
    00:00 +3°C° 0 mm 2 mps 714 mmHg 83%
    01:00 +3°C° 0 mm 2 mps 714 mmHg 84%
    02:00 +3°C° 0 mm 2 mps 713 mmHg 83%
    03:00 +3°C° 0 mm 2 mps 713 mmHg 82%
    04:00 +2°C° 0 mm 2 mps 712 mmHg 81%
    05:00 +2°C° 0 mm 2 mps 712 mmHg 79%
    06:00 +3°C° 0 mm 2 mps 712 mmHg 76%
    07:00 +3°C° 0 mm 2 mps 712 mmHg 74%
    08:00 +5°C° 0 mm 2 mps 712 mmHg 64%
    09:00 +8°C° 0 mm 2 mps 712 mmHg 54%
    10:00 +12°C° 0 mm 2 mps 712 mmHg 44%
    11:00 +13°C° 0 mm 2 mps 711 mmHg 43%
    12:00 +14°C° 0 mm 2 mps 710 mmHg 42%
    13:00 +15°C° 0 mm 2 mps 710 mmHg 42%
    14:00 +14°C° 0 mm 2 mps 709 mmHg 46%
    15:00 +14°C° 0 mm 2 mps 709 mmHg 51%
    16:00 +13°C° 0 mm 2 mps 708 mmHg 55%
    17:00 +12°C° 0 mm 2 mps 708 mmHg 60%
    18:00 +9°C° 0 mm 2 mps 708 mmHg 65%
    19:00 +8°C° 0 mm 2 mps 708 mmHg 70%
    20:00 +8°C° 0.2 mm 2 mps 707 mmHg 74%
    21:00 +7°C° 0.2 mm 2 mps 707 mmHg 78%
    22:00 +7°C° 0.2 mm 3 mps 707 mmHg 82%
    23:00 +7°C° 0.5 mm 3 mps 707 mmHg 83%
    Show more